Mullan Pass, ID

12:07 AM PDT on July 24, 2017 (GMT -0700)
Mullan Pass

Weather History for KMLP - May, 2014

Change the Weather History Date:

Sunday, May 4, 2014

  Actual Average (K3TH) Record (K3TH)
Temperature  
Mean Temperature 34 °F -  
Max Temperature 39 °F 62 °F 79 °F (1998)
Min Temperature 30 °F 39 °F 39 °F (1999)
Degree Days  
Heating Degree Days 32    
Moisture  
Dew Point 32 °F    
Average Humidity 95    
Maximum Humidity 100    
Minimum Humidity 81    
Precipitation  
Precipitation 0.28 in - - ()
Sea Level Pressure  
Sea Level Pressure 29.79 in    
Wind  
Wind Speed 5 mph (SSW)    
Max Wind Speed 12 mph    
Max Gust Speed 25 mph    
Visibility 4 miles    
Events Fog , Rain , Snow    
Averages and records for this station are not official NWS values.
T = Trace of Precipitation, MM = Missing Value Source: NWS Daily Summary

Daily Weather History Graph

Daily Weather History Graph

Search for Another Location

Airport or City:

Trip Planner

Search our weather history database for the weather conditions in past years. The results will help you decide how hot, cold, wet, or windy it might be!

Date:

Astronomy

May. 04, 2014 Rise Set
Actual Time 5:21 AM PDT 7:58 PM PDT
Civil Twilight 4:46 AM PDT 8:33 PM PDT
Nautical Twilight 4:02 AM PDT 9:17 PM PDT
Astronomical Twilight 3:11 AM PDT 10:09 PM PDT
Moon 9:47 AM PDT (5/4) 12:08 AM PDT (5/4)
Length of Visible Light 15h 47m
Length of Day
14h 37m
Waxing Crescent, 28% of the Moon is Illuminated
May 4
Waxing Crescent
May 6
First Quarter
May 14
Full
May 21
Last Quarter
May 28
New

Hourly Weather History & Observations

Time (PDT) Temp. Windchill Dew Point Humidity Pressure Visibility Wind Dir Wind Speed Gust Speed Precip Events Conditions
12:53 AM 35.1 °F 30.1 °F 30.0 °F 82% 29.68 in 10.0 mi Variable 5.8 mph - N/A   Overcast
1:02 AM 35.6 °F 31.7 °F 30.2 °F 81% 29.79 in 8.0 mi South 4.6 mph - 0.00 in Snow Light Snow
1:18 AM 33.8 °F 27.7 °F 32.0 °F 93% 29.79 in 5.0 mi South 6.9 mph - 0.00 in Snow Light Snow
1:28 AM 33.8 °F 28.6 °F 32.0 °F 93% 29.79 in 6.0 mi South 5.8 mph - 0.00 in Snow Light Snow
1:37 AM 33.8 °F 28.6 °F 32.0 °F 93% 29.77 in 2.5 mi Variable 5.8 mph - 0.00 in Snow Light Snow
1:48 AM 32.0 °F 26.4 °F 32.0 °F 100% 29.78 in 1.5 mi SSW 5.8 mph - 0.01 in Snow Light Snow
1:53 AM 32.0 °F 26.4 °F 32.0 °F 100% 29.68 in 2.0 mi South 5.8 mph - 0.01 in Snow Light Snow
1:56 AM 32.0 °F 27.5 °F 32.0 °F 100% 29.77 in 3.0 mi South 4.6 mph - 0.00 in Snow Light Snow
2:02 AM 32.0 °F 26.4 °F 32.0 °F 100% 29.77 in 2.0 mi South 5.8 mph - 0.00 in Snow Light Snow
2:04 AM 32.0 °F 27.5 °F 32.0 °F 100% 29.77 in 1.2 mi South 4.6 mph - 0.00 in Snow Light Snow
2:13 AM 32.0 °F 28.7 °F 32.0 °F 100% 29.77 in 0.5 mi SSW 3.5 mph - 0.00 in Fog , Snow Snow
2:33 AM 32.0 °F 27.5 °F 30.2 °F 93% 29.77 in 1.2 mi SW 4.6 mph - 0.01 in Snow Light Snow
2:53 AM 32.0 °F 26.4 °F 32.0 °F 100% 29.67 in 1.2 mi SW 5.8 mph - 0.01 in Snow Light Snow
3:24 AM 32.0 °F 27.5 °F 30.2 °F 93% 29.77 in 1.2 mi SW 4.6 mph - 0.01 in Snow Light Snow
3:34 AM 32.0 °F 28.7 °F 30.2 °F 93% 29.77 in 0.8 mi Variable 3.5 mph - 0.01 in Snow Light Snow
3:53 AM 32.0 °F - 32.0 °F 100% 29.65 in 0.5 mi Calm Calm - 0.02 in Fog , Snow Light Snow
4:44 AM 32.0 °F 28.7 °F 32.0 °F 100% 29.77 in 0.2 mi WSW 3.5 mph - 0.00 in Fog , Snow Light Snow
4:53 AM 32.0 °F 28.7 °F 32.0 °F 100% 29.65 in 0.2 mi Variable 3.5 mph - 0.00 in Fog , Snow Light Snow
5:53 AM 30.9 °F - 30.9 °F 100% 29.66 in 0.2 mi Calm Calm - 0.05 in Fog , Snow Heavy Snow
6:15 AM 32.0 °F - 30.2 °F 93% 29.77 in 0.2 mi Calm Calm - 0.03 in Fog , Snow Heavy Snow
6:39 AM 30.2 °F - 30.2 °F 100% 29.78 in 0.2 mi Calm Calm - 0.07 in Fog , Snow Snow
6:53 AM 30.9 °F 27.5 °F 30.9 °F 100% 29.68 in 0.2 mi Variable 3.5 mph - 0.10 in Fog , Snow Heavy Snow
7:51 AM 30.2 °F 23.4 °F 30.2 °F 100% 29.80 in 1.2 mi WSW 6.9 mph - 0.03 in Snow Light Snow
7:53 AM 30.0 °F 24.1 °F 30.0 °F 100% 29.70 in 3.0 mi Variable 5.8 mph - 0.03 in   Overcast
8:20 AM 30.2 °F - 30.2 °F 100% 29.79 in 1.0 mi Calm Calm - N/A   Overcast
8:27 AM 30.2 °F 26.7 °F 30.2 °F 100% 29.80 in 0.8 mi Variable 3.5 mph - N/A   Overcast
8:53 AM 30.9 °F 24.3 °F 30.0 °F 96% 29.70 in 1.0 mi Variable 6.9 mph - N/A   Overcast
8:55 AM 30.2 °F 22.6 °F 30.2 °F 100% 29.80 in 4.0 mi West 8.1 mph - N/A   Overcast
9:16 AM 30.2 °F 23.4 °F 30.2 °F 100% 29.81 in 1.8 mi Variable 6.9 mph 16.1 mph 0.00 in Snow Light Snow
9:25 AM 30.2 °F 21.3 °F 30.2 °F 100% 29.80 in 4.0 mi WSW 10.4 mph 21.9 mph 0.00 in Snow Light Snow
9:41 AM 30.2 °F 21.9 °F 30.2 °F 100% 29.81 in 8.0 mi West 9.2 mph 21.9 mph 0.00 in   Overcast
9:53 AM 32.0 °F 24.8 °F 30.9 °F 96% 29.70 in 10.0 mi WSW 8.1 mph 20.7 mph 0.00 in   Overcast
10:08 AM 32.0 °F 26.4 °F 30.2 °F 93% 29.82 in 10.0 mi Variable 5.8 mph - 0.00 in   Overcast
10:53 AM 32.0 °F 24.2 °F 30.0 °F 92% 29.73 in 10.0 mi WSW 9.2 mph 18.4 mph 0.00 in   Overcast
11:32 AM 33.8 °F 28.6 °F 30.2 °F 87% 29.83 in 10.0 mi Variable 5.8 mph - 0.00 in   Overcast
11:53 AM 35.1 °F 28.6 °F 32.0 °F 89% 29.72 in 10.0 mi SW 8.1 mph - 0.00 in   Overcast
12:05 PM 35.6 °F 30.7 °F 32.0 °F 87% 29.83 in 10.0 mi Variable 5.8 mph - N/A   Overcast
12:17 PM 33.8 °F 30.8 °F 32.0 °F 93% 29.83 in 2.0 mi Variable 3.5 mph - 0.01 in Snow Light Snow
12:19 PM 33.8 °F 29.6 °F 32.0 °F 93% 29.83 in 1.2 mi Variable 4.6 mph - 0.01 in Snow Light Snow
12:21 PM 33.8 °F 30.8 °F 32.0 °F 93% 29.83 in 0.8 mi Variable 3.5 mph - 0.02 in Snow Light Snow
12:24 PM 32.0 °F 24.8 °F 32.0 °F 100% 29.84 in 0.2 mi WSW 8.1 mph - 0.03 in Fog , Snow Snow
12:35 PM 33.8 °F 28.6 °F 33.8 °F 100% 29.83 in 1.2 mi Variable 5.8 mph - 0.03 in Snow Light Snow
12:37 PM 35.6 °F 28.6 °F 33.8 °F 93% 29.83 in 5.0 mi WSW 9.2 mph 17.3 mph 0.03 in   Mostly Cloudy
12:40 PM 35.6 °F 28.6 °F 32.0 °F 87% 29.83 in 9.0 mi SW 9.2 mph 17.3 mph 0.03 in   Mostly Cloudy
12:53 PM 35.1 °F 27.9 °F 33.1 °F 92% 29.73 in 10.0 mi SW 9.2 mph - 0.03 in   Overcast
1:12 PM 35.6 °F 29.2 °F 30.2 °F 81% 29.83 in 5.0 mi WSW 8.1 mph 25.3 mph 0.00 in Snow Light Snow
1:22 PM 33.8 °F 30.8 °F 32.0 °F 93% 29.83 in 1.8 mi Variable 3.5 mph - 0.00 in Snow Light Snow
1:34 PM 33.8 °F 30.8 °F 32.0 °F 93% 29.83 in 3.0 mi Variable 3.5 mph - 0.01 in Snow Light Snow
1:38 PM 33.8 °F 28.6 °F 32.0 °F 93% 29.84 in 1.8 mi Variable 5.8 mph - 0.01 in Snow Light Snow
1:45 PM 35.6 °F 31.7 °F 33.8 °F 93% 29.83 in 1.2 mi Variable 4.6 mph - 0.01 in Snow Light Snow
1:48 PM 35.6 °F 29.9 °F 33.8 °F 93% 29.83 in 2.0 mi Variable 6.9 mph - 0.01 in Snow Light Snow
1:51 PM 37.4 °F - 33.8 °F 87% 29.83 in 8.0 mi Calm Calm - 0.01 in   Mostly Cloudy
1:53 PM 37.0 °F 34.5 °F 35.1 °F 93% 29.73 in 9.0 mi Variable 3.5 mph - 0.01 in   Mostly Cloudy
2:00 PM 37.4 °F 34.9 °F 33.8 °F 87% 29.83 in 10.0 mi Variable 3.5 mph - N/A   Scattered Clouds
2:20 PM 33.8 °F 25.3 °F 30.2 °F 87% 29.83 in 2.0 mi SW 11.5 mph 21.9 mph 0.00 in Snow Light Snow
2:22 PM 33.8 °F 25.3 °F 30.2 °F 87% 29.83 in 1.2 mi WSW 11.5 mph 24.2 mph 0.01 in Snow Light Snow
2:31 PM 33.8 °F 27.7 °F 32.0 °F 93% 29.83 in 0.5 mi Variable 6.9 mph 20.7 mph 0.01 in Fog , Snow Light Snow
2:35 PM 33.8 °F 28.6 °F 33.8 °F 100% 29.83 in 0.5 mi SW 5.8 mph - 0.01 in Fog , Snow Light Snow
2:42 PM 35.6 °F 30.7 °F 33.8 °F 93% 29.83 in 2.0 mi SW 5.8 mph - 0.01 in   Overcast
2:45 PM 35.6 °F 29.9 °F 33.8 °F 93% 29.83 in 9.0 mi Variable 6.9 mph - 0.01 in   Mostly Cloudy
2:53 PM 36.0 °F 29.6 °F 35.1 °F 97% 29.73 in 10.0 mi SSW 8.1 mph - 0.01 in   Mostly Cloudy
3:12 PM 37.4 °F 32.8 °F 33.8 °F 87% 29.82 in 10.0 mi Variable 5.8 mph - N/A   Mostly Cloudy
3:24 PM 37.4 °F 32.8 °F 33.8 °F 87% 29.83 in 10.0 mi Variable 5.8 mph 16.1 mph N/A   Scattered Clouds
3:53 PM 37.9 °F 32.1 °F 34.0 °F 86% 29.71 in 10.0 mi SW 8.1 mph - N/A   Scattered Clouds
4:53 PM 37.9 °F 34.4 °F 34.0 °F 86% 29.71 in 10.0 mi Variable 4.6 mph - 0.00 in Rain Light Rain
5:07 PM 37.4 °F 34.9 °F 33.8 °F 87% 29.82 in 10.0 mi Variable 3.5 mph - 0.00 in Rain Light Rain
5:17 PM 37.4 °F 30.8 °F 33.8 °F 87% 29.82 in 10.0 mi South 9.2 mph 16.1 mph 0.00 in   Mostly Cloudy
5:31 PM 35.6 °F 28.6 °F 33.8 °F 93% 29.82 in 10.0 mi South 9.2 mph 17.3 mph 0.00 in   Mostly Cloudy
5:49 PM 33.8 °F 26.4 °F 33.8 °F 100% 29.83 in 10.0 mi South 9.2 mph 18.4 mph 0.00 in Rain Light Rain
5:53 PM 34.0 °F 26.6 °F 33.1 °F 96% 29.74 in 10.0 mi South 9.2 mph 18.4 mph 0.00 in   Overcast
6:10 PM 33.8 °F 28.6 °F 33.8 °F 100% 29.83 in 10.0 mi Variable 5.8 mph - 0.00 in   Overcast
6:26 PM 33.8 °F 27.7 °F 33.8 °F 100% 29.84 in 1.5 mi South 6.9 mph - 0.00 in   Overcast
6:31 PM 33.8 °F 27.7 °F 33.8 °F 100% 29.84 in 0.8 mi Variable 6.9 mph - 0.00 in   Overcast
6:39 PM 33.8 °F 28.6 °F 33.8 °F 100% 29.84 in 1.0 mi SSW 5.8 mph - 0.00 in Rain Light Rain
6:53 PM 33.1 °F 28.7 °F 32.0 °F 96% 29.75 in 0.8 mi South 4.6 mph - 0.01 in Snow Light Snow
7:05 PM 33.8 °F 27.0 °F 33.8 °F 100% 29.82 in 0.2 mi South 8.1 mph - 0.00 in Fog Fog
7:12 PM 33.8 °F 28.6 °F 33.8 °F 100% 29.82 in 0.5 mi South 5.8 mph - 0.00 in Fog Fog
7:20 PM 33.8 °F 28.6 °F 33.8 °F 100% 29.82 in 0.2 mi SSW 5.8 mph - 0.00 in Fog Fog
7:44 PM 32.0 °F 25.6 °F 30.2 °F 93% 29.82 in 1.5 mi SW 6.9 mph - 0.00 in   Mostly Cloudy
7:48 PM 32.0 °F 26.4 °F 30.2 °F 93% 29.82 in 10.0 mi SW 5.8 mph - 0.00 in   Scattered Clouds
7:53 PM 32.0 °F - 30.9 °F 96% 29.75 in 10.0 mi Calm Calm - 0.00 in   Scattered Clouds
7:57 PM 32.0 °F - 32.0 °F 100% 29.82 in 0.8 mi Calm Calm - N/A   Mist
8:11 PM 32.0 °F 27.5 °F 32.0 °F 100% 29.83 in 1.5 mi SSW 4.6 mph - N/A   Mostly Cloudy
8:18 PM 32.0 °F 25.6 °F 32.0 °F 100% 29.83 in 2.5 mi Variable 6.9 mph - N/A   Mostly Cloudy
8:22 PM 32.0 °F 25.6 °F 32.0 °F 100% 29.84 in 1.2 mi South 6.9 mph - N/A   Overcast
8:29 PM 32.0 °F 26.4 °F 32.0 °F 100% 29.84 in 0.2 mi Variable 5.8 mph - N/A Fog Fog
8:40 PM 32.0 °F 27.5 °F 32.0 °F 100% 29.84 in 0.5 mi South 4.6 mph 16.1 mph N/A Fog Fog
8:51 PM 32.0 °F 24.8 °F 32.0 °F 100% 29.84 in 0.2 mi South 8.1 mph - N/A Fog Fog
8:53 PM 32.0 °F 26.4 °F 32.0 °F 100% 29.75 in 0.2 mi Variable 5.8 mph - N/A Fog Fog
9:04 PM 32.0 °F 26.4 °F 32.0 °F 100% 29.84 in 0.8 mi Variable 5.8 mph - N/A   Overcast
9:09 PM 32.0 °F 26.4 °F 32.0 °F 100% 29.84 in 1.8 mi South 5.8 mph - N/A   Overcast
9:14 PM 32.0 °F 25.6 °F 32.0 °F 100% 29.84 in 10.0 mi Variable 6.9 mph - N/A   Overcast
9:53 PM 32.0 °F 25.6 °F 30.9 °F 96% 29.76 in 10.0 mi South 6.9 mph - N/A   Overcast
10:23 PM 33.8 °F 27.0 °F 32.0 °F 93% 29.84 in 10.0 mi SSW 8.1 mph - N/A   Overcast
10:53 PM 33.1 °F 28.7 °F 32.0 °F 96% 29.75 in 8.0 mi Variable 4.6 mph - 0.00 in Snow Light Snow
11:04 PM 33.8 °F 29.6 °F 32.0 °F 93% 29.84 in 10.0 mi Variable 4.6 mph - 0.00 in   Overcast
11:11 PM 33.8 °F 27.7 °F 32.0 °F 93% 29.84 in 10.0 mi Variable 6.9 mph - 0.00 in   Overcast
11:18 PM 33.8 °F 30.8 °F 32.0 °F 93% 29.84 in 10.0 mi Variable 3.5 mph - 0.00 in   Overcast
11:37 PM 33.8 °F 29.6 °F 32.0 °F 93% 29.84 in 10.0 mi SSW 4.6 mph - 0.00 in   Overcast
11:53 PM 33.1 °F 30.0 °F 32.0 °F 96% 29.75 in 2.5 mi SW 3.5 mph - 0.00 in Snow Light Snow
11:59 PM 32.0 °F 28.7 °F 32.0 °F 100% 29.85 in 1.2 mi WSW 3.5 mph - 0.01 in Snow Light Snow